Le Raizet Airport, Guadeloupe

6:53 AM AST on June 23, 2018 (GMT -0400)
Le Raizet

Weather History for TFFR - October, 2017

Change the Weather History Date:

Thursday, October 26, 2017

  Actual Average Record
Temperature  
Mean Temperature 79 °F -  
Max Temperature 83 °F 84 °F 89 °F (1997)
Min Temperature 75 °F 71 °F 71 °F (2003)
Cooling Degree Days 14    
Growing Degree Days 29 (Base 50)    
Moisture  
Dew Point 73 °F    
Average Humidity 83    
Maximum Humidity 94    
Minimum Humidity 64    
Precipitation  
Precipitation 0.03 in 0.29 in - ()
Sea Level Pressure  
Sea Level Pressure 29.90 in    
Wind  
Wind Speed 7 mph ()    
Max Wind Speed 16 mph    
Max Gust Speed -    
Visibility 6.5 miles    
Events Rain    
Averages and records for this station are not official NWS values.
T = Trace of Precipitation, MM = Missing Value Source: Averaged Metar Reports

Daily Weather History Graph

Daily Weather History Graph

Search for Another Location

Airport or City:

Astronomy

Oct. 26, 2017 Rise Set
Actual Time 6:01 AM AST 5:38 PM AST
Civil Twilight 5:39 AM AST 6:00 PM AST
Nautical Twilight 5:13 AM AST 6:25 PM AST
Astronomical Twilight 4:48 AM AST 6:51 PM AST
Moon 11:32 AM AST (10/26) 11:06 PM AST (10/26)
Length of Visible Light 12h 21m
Length of Day
11h 37m
Waxing Crescent, 38% of the Moon is Illuminated
Oct 26
Waxing Crescent
Oct 27
First Quarter
Nov 4
Full
Nov 10
Last Quarter
Nov 18
New

Hourly Weather History & Observations

Time (AST) Temp. Heat Index Dew Point Humidity Pressure Visibility Wind Dir Wind Speed Gust Speed Precip Events Conditions
12:00 AM 77.0 °F - 73.4 °F 89% 29.92 in 6.2 mi ESE 3.5 mph - N/A   Mostly Cloudy
12:30 AM 77.0 °F - 73.4 °F 89% 29.92 in 6.2 mi East 4.6 mph - N/A   Mostly Cloudy
1:00 AM 77.0 °F - 73.4 °F 89% 29.92 in 6.2 mi East 9.2 mph - N/A   Mostly Cloudy
1:30 AM 77.0 °F - 73.4 °F 89% 29.92 in 6.2 mi East 8.1 mph - N/A   Mostly Cloudy
2:00 AM 76 °F - 72 °F 84% 29.92 in 22 mi ESE 5.8 mph - -   Clear
2:00 AM 77.0 °F - 71.6 °F 83% 29.92 in 6.2 mi ESE 5.8 mph - N/A   Unknown
2:30 AM 77.0 °F - 71.6 °F 83% 29.89 in 6.2 mi East 5.8 mph - N/A   Unknown
3:00 AM 77.0 °F - 71.6 °F 83% 29.89 in 6.2 mi East 10.4 mph - N/A   Mostly Cloudy
3:30 AM 75.2 °F - 71.6 °F 89% 29.89 in 6.2 mi ESE 5.8 mph - N/A   Overcast
4:00 AM 77.0 °F - 71.6 °F 83% 29.89 in 6.2 mi East 4.6 mph - N/A   Unknown
4:30 AM 77.0 °F - 73.4 °F 89% 29.89 in 4.3 mi East 9.2 mph - N/A   Mostly Cloudy
5:00 AM 77 °F - 73 °F 85% 29.91 in 15 mi ESE 8.1 mph - -   Clear
5:00 AM 77.0 °F - 73.4 °F 89% 29.89 in 6.2 mi ESE 8.1 mph - N/A   Mostly Cloudy
5:30 AM 77.0 °F - 71.6 °F 83% 29.92 in 6.2 mi ESE 9.2 mph - N/A   Mostly Cloudy
6:00 AM 77.0 °F - 73.4 °F 89% 29.92 in 6.2 mi East 5.8 mph - N/A Rain Light Rain
6:30 AM 77.0 °F - 73.4 °F 89% 29.95 in 6.2 mi East 6.9 mph - N/A   Mostly Cloudy
7:00 AM 77.0 °F - 73.4 °F 89% 29.95 in 6.2 mi ESE 6.9 mph - N/A   Mostly Cloudy
7:30 AM 78.8 °F - 73.4 °F 83% 29.95 in 6.2 mi ESE 8.1 mph - N/A   Mostly Cloudy
8:00 AM 79 °F - 73 °F 76% 29.95 in 31 mi ESE 10.4 mph - -   Clear
8:00 AM 78.8 °F - 73.4 °F 83% 29.95 in - ESE 10.4 mph - N/A   Clear
8:30 AM 80.6 °F 85.4 °F 73.4 °F 79% 29.95 in - ESE 6.9 mph - N/A   Clear
9:00 AM 80.6 °F 85.4 °F 73.4 °F 79% 29.95 in 6.2 mi East 6.9 mph - N/A   Mostly Cloudy
9:30 AM 80.6 °F 85.4 °F 73.4 °F 79% 29.95 in 6.2 mi ESE 11.5 mph - N/A   Mostly Cloudy
10:00 AM 80.6 °F 85.4 °F 73.4 °F 79% 29.95 in 6.2 mi ESE 9.2 mph - N/A   Mostly Cloudy
10:30 AM 80.6 °F 84.6 °F 71.6 °F 74% 29.95 in 6.2 mi SE 12.7 mph - N/A   Mostly Cloudy
11:00 AM 80.6 °F 85.4 °F 73.4 °F 79% 29.92 in 6.2 mi SE 13.8 mph - N/A   Mostly Cloudy
11:30 AM 78.8 °F - 73.4 °F 83% 29.92 in 2.5 mi ESE 15.0 mph - N/A   Overcast
12:00 PM 82.4 °F 88.2 °F 73.4 °F 74% 29.92 in 6.2 mi SE 16.1 mph - N/A   Mostly Cloudy
12:30 PM 82.4 °F 88.2 °F 73.4 °F 74% 29.89 in 6.2 mi SSE 15.0 mph - N/A   Mostly Cloudy
1:00 PM 80.6 °F 85.4 °F 73.4 °F 79% 29.89 in 6.2 mi SSE 11.5 mph - N/A   Mostly Cloudy
1:30 PM 82.4 °F 88.2 °F 73.4 °F 74% 29.89 in 6.2 mi SSE 8.1 mph - N/A   Overcast
2:00 PM 83 °F - 73 °F 64% 29.88 in 34 mi SE 12.7 mph - -   Clear
2:00 PM 82.4 °F 88.2 °F 73.4 °F 74% 29.86 in 6.2 mi SE 12.7 mph - N/A   Overcast
2:30 PM 82.4 °F 88.2 °F 73.4 °F 74% 29.86 in 6.2 mi SSE 10.4 mph - N/A   Mostly Cloudy
3:00 PM 80.6 °F 85.4 °F 73.4 °F 79% 29.86 in 6.2 mi SSE 11.5 mph - N/A   Mostly Cloudy
3:30 PM 80.6 °F 84.6 °F 71.6 °F 74% 29.86 in 6.2 mi SSE 8.1 mph - N/A   Overcast
4:00 PM 80.6 °F 84.6 °F 71.6 °F 74% 29.86 in 6.2 mi SE 9.2 mph - N/A   Unknown
4:30 PM 82.4 °F 88.2 °F 73.4 °F 74% 29.86 in 6.2 mi SE 5.8 mph - N/A   Mostly Cloudy
5:00 PM 78 °F - 73 °F 82% 29.88 in 4 mi SE 13.8 mph - - Rain Light Rain
5:00 PM 78.8 °F - 73.4 °F 83% 29.86 in 6.2 mi SE 13.8 mph - N/A Rain Light Rain
5:30 PM 77.0 °F - 71.6 °F 83% 29.86 in 6.2 mi SE 11.5 mph - N/A Rain Light Rain
6:00 PM 77.0 °F - 73.4 °F 89% 29.86 in 6.2 mi SSE 4.6 mph - N/A   Overcast
6:30 PM 77.0 °F - 73.4 °F 89% 29.86 in 6.2 mi Variable 3.5 mph - N/A   Overcast
7:00 PM 77.0 °F - 73.4 °F 89% 29.86 in 6.2 mi Variable 1.2 mph - N/A   Overcast
7:30 PM 77.0 °F - 73.4 °F 89% 29.89 in 6.2 mi ESE 3.5 mph - N/A   Overcast
8:00 PM 77 °F - 73 °F 85% 29.89 in 17 mi South 2.3 mph - -   Clear
8:00 PM 77.0 °F - 73.4 °F 89% 29.89 in - Variable 2.3 mph - N/A   Clear
8:30 PM 77.0 °F - 73.4 °F 89% 29.89 in 6.2 mi Variable 2.3 mph - N/A   Overcast
9:00 PM 77.0 °F - 75.2 °F 94% 29.89 in 6.2 mi ESE 3.5 mph - N/A   Mostly Cloudy
9:30 PM 77.0 °F - 73.4 °F 89% 29.89 in 6.2 mi SE 4.6 mph - N/A   Mostly Cloudy
10:00 PM 78.8 °F - 73.4 °F 83% 29.89 in 6.2 mi NE 3.5 mph - N/A   Overcast
10:30 PM 78.8 °F - 73.4 °F 83% 29.89 in 6.2 mi East 5.8 mph - N/A   Scattered Clouds
11:00 PM 79 °F - 74 °F 79% 29.89 in 8 mi ENE 8.1 mph - -   Clear
11:00 PM 78.8 °F - 73.4 °F 83% 29.89 in 6.2 mi ENE 8.1 mph - N/A   Mostly Cloudy
11:30 PM 78.8 °F - 73.4 °F 83% 29.89 in 6.2 mi East 6.9 mph - N/A   Mostly Cloudy